Starlink 35594

operational
NORAD ID: 66157 Int'l Des: 2025-240 Owner: SPXS Country: US Constellation: starlink
LEOCIRCULAR

关于 Starlink 35594

正在加载描述...

实时位置

正在加载3D地球...

即将过境

高度历史

Altitude vs Time

uPlot chart will show altitude changes over time

两行轨道根数

1 66157C 25240N 25298.74215278 .00631500 00000+0 10276-2 0 2984
2 66157 53.1578 338.8176 0009117 268.8280 322.0010 16.01907241 14
Epoch: Oct 25, 2025 • Age: 163 hours

当前状态

高度 251.5 km
速度 7.76 km/s
星下点 -40.34°S, 56.74°W
发射日期 Oct 25, 2025
运行时间 6 days
类型 internet

技术详情

分类 Payload
质量 575.00 kg
干质量 530.00 kg
总质量 575.00 kg
长度 0.30 m
直径 4.10 m
跨度 29.00 m
形状 Box + pan
制造商 SPXS
平台类型 Starlink V2MO
阶段状态 In Orbit
所有者/国家 SPXS/US

大型星座

Loading constellations...